Location: Newark
(37.9800°N, 91.3000°W)
Time: 12:45:41
(UTC+00:00)

NOAA 19 - Pass Details

Date: 06 December 2019
Orbit: 840 x 862 km, 99.2° (Epoch: 17 January)

Event Time Altitude Azimuth Distance (km) Brightness Sun altitude
Rises 12:15:41 0° 8° (N) 3,443 8.2 -10.0°
Reaches altitude 10° 12:18:07 10° 4° (N) 2,501 7.5 -9.5°
Maximum altitude 12:23:29 53° 289° (WNW) 1,044 5.4 -8.6°
Drops below altitude 10° 12:28:48 10° 214° (SSW) 2,474 7.5 -7.6°
Sets 12:31:12 0° 209° (SSW) 3,402 8.3 -7.1°
